QPF
0.00 0.00 0.00 0.00 0.00 0.00 0.00 0.00 0.00 0.00 0.00 0.00 0.00 0.00 0.00 0.00 0.00 0.00 0.00 0.00 0.00 0.00 0.00 0.00 0.00 0.00 0.00 0.00 0.00 0.00 0.00 0.00 0.00 0.00 0.00 0.00 0.00 0.00 0.00 0.00 0.00 0.00 0.00 0.00
0.00 0.00 0.00 0.00 0.00 0.00 0.00 0.00 0.00 0.00 0.00 0.00 0.00 0.00 0.00 0.00 0.00 0.00 0.00 0.00 0.00 0.00 0.00 0.00 0.00 0.00 0.00 0.00 0.00 0.00 0.00 0.00 0.00 0.00 0.00 0.00 0.00 0.00 0.00 0.00 0.00 0.00 0.00 0.00
0.00 0.00 0.00 0.00 0.00 0.00 0.00 0.00 0.00 0.00 0.00 0.00 0.00 0.00 0.00 0.00 0.00 0.00 0.00 0.00 0.00 0.00 0.00 0.00 0.00 0.00 0.00 0.00 0.00 0.00 0.00 0.00 0.00 0.00 0.00 0.00 0.00 0.00 0.00 0.00 0.00 0.00 0.00 0.00
0.00 0.00 0.00 0.00 0.00 0.00 0.00 0.00 0.00 0.00 0.00 0.00 0.00 0.00 0.00 0.00 0.00 0.00 0.00 0.00 0.00 0.00 0.00 0.00 0.00 0.00 0.00 0.00 0.00 0.00 0.00 0.00 0.00 0.00 0.00 0.00 0.00 0.00 0.00 0.00 0.00 0.00 0.00 0.00
0.00 0.00 0.00 0.00 0.00 0.00 0.00 0.00 0.00 0.00 0.00 0.00 0.00 0.00 0.00 0.00 0.00 0.00 0.00 0.00 0.00 0.00 0.00 0.00 0.00 0.00 0.00 0.00 0.00 0.00 0.00 0.00 0.00 0.00 0.00 0.00 0.00 0.00 0.00 0.00 0.00 0.00 0.00 0.00
0.00 0.00 0.00 0.00 0.00 0.00 0.00 0.00 0.00 0.00 0.00 0.00 0.00 0.00 0.00 0.00 0.00 0.00 0.00 0.00 0.00 0.00 0.00 0.00 0.00 0.00 0.00 0.00 0.00 0.00 0.00 0.00 0.00 0.00 0.00 0.00 0.00 0.00 0.00 0.00 0.00 0.00 0.00 0.00
0.00 0.00 0.00 0.00 0.00 0.00 0.00 0.00 0.00 0.00 0.00 0.00 0.00 0.00 0.00 0.00 0.00 0.00 0.00 0.00 0.00 0.00 0.00 0.00 0.00 0.00 0.00 0.00 0.00 0.00 0.00 0.00 0.00 0.00 0.00 0.00 0.00 0.00 0.00 0.00 0.00 0.00 0.00 0.00
0.00 0.00 0.00 0.00 0.00 0.00 0.00 0.00 0.00 0.00 0.00 0.00 0.00 0.00 0.00 0.00 0.00 0.00 0.00 0.00 0.00 0.00 0.00 0.00 0.00 0.00 0.00 0.00 0.00 0.00 0.00 0.00 0.00 0.00 0.00 0.00 0.00 0.00 0.00 0.00 0.00 0.00 0.00 0.00
0.00 0.00 0.00 0.00 0.00 0.00 0.00 0.00 0.00 0.00 0.00 0.00 0.00 0.00 0.00 0.00 0.00 0.00 0.00 0.00 0.00 0.00 0.00 0.00 0.00 0.00 0.00 0.00 0.00 0.00 0.00 0.00 0.00 0.00 0.00 0.00 0.00 0.00 0.00 0.00 0.00 0.00 0.00 0.00
0.00 0.00 0.00 0.00 0.00 0.00 0.00 0.00 0.00 0.00 0.00 0.00 0.00 0.00 0.00 0.00 0.00 0.00 0.00 0.00 0.00 0.00 0.00 0.00 0.00 0.00 0.00 0.00 0.00 0.00 0.00 0.00 0.00 0.00 0.00 0.00 0.00 0.00 0.00 0.00 0.00 0.00 0.00 0.00
0.00 0.00 0.00 0.00 0.00 0.00 0.00 0.00 0.00 0.00 0.00 0.00 0.00 0.00 0.00 0.00 0.00 0.00 0.00 0.00 0.00 0.00 0.00 0.00 0.00 0.00 0.00 0.00 0.00 0.00 0.00 0.00 0.00 0.00 0.00 0.00 0.00 0.00 0.00 0.00 0.00 0.00 0.00 0.00
0.00 0.00 0.00 0.00 0.00 0.00 0.00 0.00 0.00 0.00 0.00 0.00 0.00 0.00 0.00 0.00 0.00 0.00 0.00 0.00 0.00 0.00 0.00 0.00 0.00 0.00 0.00 0.00 0.00 0.00 0.00 0.00 0.00 0.00 0.00 0.00 0.00 0.00 0.00 0.00 0.00 0.00 0.00 0.00
0.00 0.00 0.00 0.00 0.00 0.00 0.00 0.00 0.00 0.00 0.00 0.00 0.00 0.00 0.00 0.00 0.00 0.00 0.00 0.00 0.00 0.00 0.00 0.00 0.00 0.00 0.00 0.00 0.00 0.00 0.00 0.00 0.00 0.00 0.00 0.00 0.00 0.00 0.00 0.00 0.00 0.00 0.00 0.00
0.00 0.00 0.00 0.00 0.00 0.00 0.00 0.00 0.00 0.00 0.00 0.00 0.00 0.00 0.00 0.00 0.00 0.00 0.00 0.00 0.00 0.00 0.00 0.00 0.00 0.00 0.00 0.00 0.00 0.00 0.00 0.00 0.00 0.00 0.00 0.00 0.00 0.00 0.00 0.00 0.00 0.00 0.00 0.00
0.00 0.00 0.00 0.00 0.00 0.00 0.00 0.00 0.00 0.00 0.00 0.00 0.00 0.00 0.00 0.00 0.00 0.00 0.00 0.00 0.00 0.00 0.00 0.00 0.00 0.00 0.00 0.00 0.00 0.00 0.00 0.00 0.00 0.00 0.00 0.00 0.00 0.00 0.00 0.00 0.00 0.00 0.00 0.00
0.00 0.00 0.00 0.00 0.00 0.00 0.00 0.00 0.00 0.00 0.00 0.00 0.00 0.00 0.00 0.00 0.00 0.00 0.00 0.00 0.00 0.00 0.00 0.00 0.00 0.00 0.00 0.00 0.00 0.00 0.00 0.00 0.00 0.00 0.00 0.00 0.00 0.00 0.00 0.00 0.00 0.00 0.00 0.00
0.00 0.00 0.00 0.00 0.00 0.00 0.00 0.00 0.00 0.00 0.00 0.00 0.00 0.00 0.00 0.00 0.00 0.00 0.00 0.00 0.00 0.00 0.00 0.00 0.00 0.00 0.00 0.00 0.00 0.00 0.00 0.00 0.00 0.00 0.00 0.00 0.00 0.00 0.00 0.00 0.00 0.00 0.00 0.00
0.00 0.00 0.00 0.00 0.00 0.00 0.00 0.00 0.00 0.00 0.00 0.00 0.00 0.00 0.00 0.00 0.00 0.00 0.00 0.00 0.00 0.00 0.00 0.00 0.00 0.00 0.00 0.00 0.00 0.00 0.00 0.00 0.00 0.00 0.00 0.00 0.00 0.00 0.00 0.00 0.00 0.00 0.00 0.00
0.00 0.00 0.00 0.00 0.00 0.00 0.00 0.00 0.00 0.00 0.00 0.00 0.00 0.00 0.00 0.00 0.00 0.00 0.00 0.00 0.00 0.00 0.00 0.00 0.00 0.00 0.00 0.00 0.00 0.00 0.00 0.00 0.00 0.00 0.00 0.00 0.00 0.00 0.00 0.00 0.00 0.00 0.00 0.00
0.00 0.00 0.00 0.00 0.00 0.00 0.00 0.00 0.00 0.00 0.00 0.00 0.00 0.00 0.00 0.00 0.00 0.00 0.00 0.00 0.00 0.00 0.00 0.00 0.00 0.00 0.00 0.00 0.00 0.00 0.00 0.00 0.00 0.00 0.00 0.00 0.00 0.00 0.00 0.00 0.00 0.00 0.00 0.00
0.00 0.00 0.00 0.00 0.00 0.00 0.00 0.00 0.00 0.00 0.00 0.00 0.00 0.00 0.00 0.00 0.00 0.00 0.00 0.00 0.00 0.00 0.00 0.00 0.00 0.00 0.00 0.00 0.00 0.00 0.00 0.00 0.00 0.00 0.00 0.00 0.00 0.00 0.00 0.00 0.00 0.00 0.00 0.00
0.00 0.00 0.00 0.00 0.00 0.00 0.00 0.00 0.00 0.00 0.00 0.00 0.00 0.00 0.00 0.00 0.00 0.00 0.00 0.00 0.00 0.00 0.00 0.00 0.00 0.00 0.00 0.00 0.00 0.00 0.00 0.00 0.00 0.00 0.00 0.00 0.00 0.00 0.00 0.00 0.00 0.00 0.00 0.00
0.00 0.00 0.00 0.00 0.00 0.00 0.00 0.00 0.00 0.00 0.00 0.00 0.00 0.00 0.00 0.00 0.00 0.00 0.00 0.00 0.00 0.00 0.00 0.00 0.00 0.00 0.00 0.00 0.00 0.00 0.00 0.00 0.00 0.00 0.00 0.00 0.00 0.00 0.00 0.00 0.00 0.00 0.00 0.01
0.00 0.00 0.00 0.00 0.00 0.00 0.00 0.00 0.00 0.00 0.00 0.00 0.00 0.00 0.00 0.00 0.00 0.00 0.00 0.00 0.00 0.00 0.00 0.00 0.00 0.00 0.00 0.00 0.00 0.00 0.00 0.00 0.00 0.00 0.00 0.00 0.00 0.00 0.00 0.00 0.00 0.00 0.02 0.04
0.00 0.00 0.00 0.00 0.00 0.00 0.00 0.00 0.00 0.00 0.00 0.00 0.00 0.00 0.00 0.00 0.00 0.00 0.00 0.00 0.00 0.00 0.00 0.00 0.00 0.00 0.00 0.00 0.00 0.00 0.00 0.00 0.00 0.00 0.00 0.00 0.00 0.00 0.00 0.00 0.00 0.00 0.01 0.04
0.00 0.00 0.00 0.00 0.00 0.00 0.00 0.00 0.00 0.00 0.00 0.00 0.00 0.00 0.00 0.00 0.00 0.00 0.00 0.00 0.00 0.00 0.00 0.00 0.00 0.00 0.00 0.00 0.00 0.00 0.00 0.00 0.00 0.00 0.00 0.00 0.00 0.00 0.00 0.00 0.00 0.00 0.00 0.01
MSLP
1023.65 1024.60 1025.48 1026.24 1026.85 1027.31 1027.65 1027.93 1028.22 1028.57 1029.02 1029.59 1030.27 1031.01 1031.77 1032.51 1033.16 1033.71 1034.16 1034.52 1034.81 1035.06 1035.29 1035.52 1035.73 1035.92 1036.03 1036.06 1035.97 1035.76 1035.44 1035.03 1034.57 1034.09 1033.62 1033.17 1032.74 1032.31 1031.86 1031.36 1030.81 1030.19 1029.52 1028.83
1024.44 1025.19 1025.84 1026.37 1026.77 1027.07 1027.31 1027.55 1027.85 1028.26 1028.79 1029.43 1030.17 1030.95 1031.73 1032.46 1033.11 1033.67 1034.13 1034.52 1034.86 1035.16 1035.44 1035.70 1035.92 1036.09 1036.18 1036.17 1036.05 1035.82 1035.51 1035.12 1034.71 1034.28 1033.85 1033.42 1032.98 1032.52 1032.00 1031.43 1030.80 1030.11 1029.41 1028.71
1025.16 1025.71 1026.15 1026.46 1026.68 1026.85 1027.02 1027.24 1027.57 1028.03 1028.61 1029.31 1030.07 1030.86 1031.64 1032.36 1033.00 1033.57 1034.06 1034.49 1034.89 1035.24 1035.57 1035.86 1036.08 1036.23 1036.28 1036.24 1036.09 1035.85 1035.55 1035.20 1034.84 1034.46 1034.08 1033.67 1033.22 1032.71 1032.13 1031.47 1030.76 1030.02 1029.27 1028.56
1025.83 1026.20 1026.44 1026.58 1026.66 1026.73 1026.85 1027.07 1027.43 1027.92 1028.54 1029.25 1030.01 1030.78 1031.52 1032.22 1032.84 1033.42 1033.94 1034.43 1034.88 1035.30 1035.68 1035.99 1036.22 1036.35 1036.37 1036.28 1036.11 1035.86 1035.58 1035.27 1034.95 1034.63 1034.28 1033.89 1033.42 1032.88 1032.23 1031.51 1030.73 1029.92 1029.14 1028.40
1026.48 1026.68 1026.76 1026.76 1026.74 1026.75 1026.85 1027.09 1027.47 1027.98 1028.61 1029.30 1030.02 1030.74 1031.42 1032.06 1032.67 1033.24 1033.80 1034.34 1034.86 1035.35 1035.78 1036.12 1036.35 1036.47 1036.46 1036.34 1036.14 1035.88 1035.61 1035.33 1035.05 1034.76 1034.44 1034.06 1033.59 1033.01 1032.32 1031.54 1030.71 1029.86 1029.04 1028.29
1027.10 1027.15 1027.11 1027.01 1026.93 1026.92 1027.03 1027.28 1027.68 1028.20 1028.80 1029.45 1030.10 1030.74 1031.35 1031.93 1032.50 1033.07 1033.66 1034.26 1034.86 1035.42 1035.90 1036.28 1036.53 1036.63 1036.59 1036.44 1036.21 1035.94 1035.65 1035.38 1035.12 1034.85 1034.54 1034.17 1033.69 1033.09 1032.38 1031.57 1030.71 1029.84 1029.00 1028.22
1027.66 1027.61 1027.48 1027.32 1027.22 1027.21 1027.33 1027.61 1028.02 1028.53 1029.09 1029.68 1030.25 1030.79 1031.31 1031.83 1032.37 1032.95 1033.57 1034.23 1034.89 1035.53 1036.08 1036.50 1036.76 1036.85 1036.79 1036.61 1036.35 1036.04 1035.74 1035.45 1035.18 1034.90 1034.59 1034.21 1033.73 1033.13 1032.41 1031.60 1030.73 1029.85 1028.99 1028.19
1028.14 1028.01 1027.83 1027.65 1027.54 1027.55 1027.70 1028.00 1028.41 1028.90 1029.42 1029.93 1030.41 1030.87 1031.31 1031.78 1032.29 1032.88 1033.54 1034.26 1035.00 1035.70 1036.31 1036.77 1037.05 1037.15 1037.07 1036.85 1036.55 1036.21 1035.86 1035.53 1035.23 1034.93 1034.60 1034.20 1033.71 1033.11 1032.40 1031.59 1030.74 1029.86 1028.99 1028.17
1028.49 1028.32 1028.11 1027.93 1027.84 1027.88 1028.05 1028.36 1028.77 1029.23 1029.70 1030.14 1030.55 1030.94 1031.34 1031.77 1032.28 1032.89 1033.60 1034.38 1035.18 1035.94 1036.60 1037.09 1037.40 1037.49 1037.40 1037.15 1036.81 1036.42 1036.02 1035.64 1035.28 1034.94 1034.57 1034.14 1033.64 1033.04 1032.34 1031.55 1030.71 1029.84 1028.96 1028.11
1028.69 1028.51 1028.30 1028.14 1028.07 1028.13 1028.32 1028.63 1029.02 1029.44 1029.86 1030.25 1030.62 1030.97 1031.35 1031.79 1032.32 1032.97 1033.73 1034.56 1035.41 1036.22 1036.92 1037.43 1037.74 1037.83 1037.73 1037.46 1037.08 1036.65 1036.19 1035.76 1035.34 1034.93 1034.51 1034.05 1033.53 1032.92 1032.23 1031.46 1030.64 1029.77 1028.88 1027.97
1028.76 1028.59 1028.41 1028.26 1028.21 1028.28 1028.46 1028.74 1029.09 1029.47 1029.85 1030.22 1030.57 1030.93 1031.33 1031.81 1032.40 1033.11 1033.92 1034.80 1035.68 1036.52 1037.22 1037.74 1038.05 1038.13 1038.02 1037.73 1037.33 1036.86 1036.36 1035.87 1035.39 1034.92 1034.45 1033.95 1033.40 1032.78 1032.09 1031.33 1030.51 1029.64 1028.72 1027.77
1028.78 1028.63 1028.47 1028.34 1028.28 1028.32 1028.46 1028.69 1028.98 1029.31 1029.66 1030.02 1030.39 1030.80 1031.27 1031.83 1032.50 1033.28 1034.15 1035.06 1035.96 1036.79 1037.48 1037.98 1038.27 1038.34 1038.21 1037.92 1037.51 1037.02 1036.50 1035.97 1035.44 1034.92 1034.40 1033.85 1033.26 1032.63 1031.94 1031.18 1030.36 1029.48 1028.53 1027.52
1028.83 1028.72 1028.57 1028.44 1028.34 1028.32 1028.37 1028.51 1028.71 1028.98 1029.30 1029.66 1030.08 1030.58 1031.15 1031.83 1032.61 1033.47 1034.39 1035.32 1036.22 1037.02 1037.66 1038.12 1038.38 1038.44 1038.30 1038.01 1037.61 1037.13 1036.60 1036.05 1035.49 1034.93 1034.36 1033.77 1033.15 1032.50 1031.80 1031.04 1030.22 1029.32 1028.35 1027.30
1029.01 1028.93 1028.79 1028.62 1028.45 1028.32 1028.24 1028.25 1028.34 1028.52 1028.81 1029.19 1029.68 1030.29 1031.00 1031.81 1032.71 1033.66 1034.63 1035.58 1036.44 1037.19 1037.77 1038.18 1038.39 1038.42 1038.28 1038.01 1037.63 1037.17 1036.66 1036.12 1035.55 1034.96 1034.35 1033.73 1033.08 1032.41 1031.70 1030.94 1030.12 1029.23 1028.25 1027.18
1029.38 1029.33 1029.17 1028.93 1028.65 1028.37 1028.13 1027.96 1027.92 1028.00 1028.25 1028.66 1029.23 1029.95 1030.81 1031.77 1032.80 1033.85 1034.87 1035.81 1036.63 1037.31 1037.82 1038.15 1038.31 1038.31 1038.18 1037.94 1037.59 1037.18 1036.70 1036.18 1035.61 1035.01 1034.39 1033.73 1033.06 1032.37 1031.66 1030.91 1030.10 1029.23 1028.26 1027.20
1029.94 1029.89 1029.69 1029.36 1028.94 1028.48 1028.04 1027.69 1027.49 1027.47 1027.67 1028.10 1028.75 1029.60 1030.61 1031.73 1032.88 1034.02 1035.07 1036.01 1036.79 1037.40 1037.82 1038.08 1038.19 1038.17 1038.04 1037.83 1037.53 1037.17 1036.74 1036.25 1035.70 1035.10 1034.45 1033.78 1033.09 1032.39 1031.68 1030.95 1030.17 1029.33 1028.41 1027.39
1030.60 1030.54 1030.28 1029.84 1029.26 1028.61 1027.98 1027.44 1027.08 1026.95 1027.11 1027.56 1028.30 1029.27 1030.41 1031.67 1032.94 1034.15 1035.24 1036.17 1036.90 1037.44 1037.79 1037.98 1038.05 1038.01 1037.90 1037.72 1037.47 1037.17 1036.79 1036.33 1035.80 1035.20 1034.55 1033.86 1033.16 1032.45 1031.75 1031.04 1030.31 1029.53 1028.68 1027.73
1031.21 1031.13 1030.80 1030.25 1029.52 1028.70 1027.89 1027.18 1026.69 1026.48 1026.60 1027.08 1027.88 1028.96 1030.23 1031.60 1032.97 1034.24 1035.36 1036.28 1036.97 1037.45 1037.74 1037.88 1037.91 1037.87 1037.77 1037.63 1037.44 1037.18 1036.84 1036.42 1035.90 1035.31 1034.64 1033.94 1033.23 1032.52 1031.84 1031.16 1030.48 1029.78 1029.01 1028.16
1031.59 1031.48 1031.08 1030.43 1029.59 1028.64 1027.70 1026.88 1026.30 1026.04 1026.16 1026.66 1027.53 1028.69 1030.06 1031.51 1032.95 1034.28 1035.41 1036.31 1036.97 1037.41 1037.66 1037.77 1037.78 1037.75 1037.67 1037.57 1037.42 1037.20 1036.91 1036.50 1036.00 1035.40 1034.72 1034.01 1033.28 1032.58 1031.91 1031.27 1030.64 1030.01 1029.33 1028.58
1031.58 1031.42 1030.98 1030.27 1029.36 1028.35 1027.35 1026.49 1025.88 1025.63 1025.77 1026.32 1027.24 1028.47 1029.90 1031.42 1032.89 1034.23 1035.37 1036.26 1036.89 1037.31 1037.53 1037.63 1037.65 1037.63 1037.58 1037.51 1037.40 1037.22 1036.95 1036.56 1036.06 1035.45 1034.76 1034.04 1033.30 1032.59 1031.94 1031.33 1030.75 1030.18 1029.58 1028.92
1031.07 1030.88 1030.41 1029.69 1028.78 1027.79 1026.82 1026.00 1025.45 1025.25 1025.46 1026.07 1027.05 1028.32 1029.78 1031.31 1032.79 1034.12 1035.24 1036.11 1036.72 1037.12 1037.35 1037.45 1037.49 1037.50 1037.48 1037.44 1037.36 1037.21 1036.95 1036.57 1036.07 1035.45 1034.76 1034.02 1033.28 1032.57 1031.92 1031.33 1030.79 1030.26 1029.72 1029.13
1030.07 1029.83 1029.36 1028.68 1027.85 1026.95 1026.10 1025.42 1025.00 1024.92 1025.23 1025.92 1026.95 1028.24 1029.70 1031.21 1032.65 1033.94 1035.02 1035.86 1036.46 1036.86 1037.09 1037.22 1037.29 1037.32 1037.34 1037.33 1037.27 1037.14 1036.89 1036.51 1036.01 1035.40 1034.70 1033.97 1033.23 1032.52 1031.88 1031.29 1030.76 1030.26 1029.75 1029.20
1028.64 1028.37 1027.92 1027.32 1026.63 1025.91 1025.27 1024.79 1024.57 1024.66 1025.10 1025.88 1026.95 1028.25 1029.67 1031.12 1032.50 1033.72 1034.74 1035.54 1036.12 1036.52 1036.77 1036.93 1037.03 1037.10 1037.15 1037.16 1037.12 1037.00 1036.76 1036.39 1035.90 1035.29 1034.61 1033.88 1033.16 1032.46 1031.82 1031.24 1030.70 1030.20 1029.69 1029.16
1026.95 1026.64 1026.23 1025.75 1025.24 1024.76 1024.38 1024.17 1024.19 1024.50 1025.09 1025.96 1027.07 1028.34 1029.71 1031.07 1032.34 1033.48 1034.43 1035.17 1035.73 1036.13 1036.40 1036.59 1036.73 1036.83 1036.91 1036.94 1036.91 1036.79 1036.56 1036.20 1035.73 1035.15 1034.49 1033.79 1033.09 1032.41 1031.78 1031.19 1030.65 1030.12 1029.59 1029.04
1025.16 1024.81 1024.45 1024.11 1023.81 1023.60 1023.52 1023.61 1023.91 1024.43 1025.19 1026.15 1027.27 1028.51 1029.79 1031.04 1032.20 1033.23 1034.10 1034.79 1035.32 1035.72 1036.01 1036.23 1036.40 1036.53 1036.62 1036.67 1036.64 1036.53 1036.30 1035.96 1035.51 1034.96 1034.35 1033.70 1033.04 1032.40 1031.78 1031.19 1030.63 1030.07 1029.50 1028.91
1023.43 1023.04 1022.74 1022.54 1022.47 1022.53 1022.75 1023.14 1023.71 1024.45 1025.36 1026.40 1027.53 1028.71 1029.90 1031.04 1032.08 1032.99 1033.78 1034.41 1034.92 1035.32 1035.63 1035.88 1036.07 1036.22 1036.32 1036.37 1036.34 1036.22 1036.00 1035.68 1035.26 1034.76 1034.21 1033.62 1033.01 1032.41 1031.82 1031.24 1030.66 1030.07 1029.45 1028.80
Thickness
5688 5674 5661 5664 5665 5665 5660 5650 5635 5629 5630 5622 5606 5590 5586 5578 5566 5553 5543 5536 5526 5514 5500 5487 5474 5461 5447 5434 5420 5407 5394 5381 5367 5355 5344 5334 5323 5312 5302 5291 5282 5276 5271 5268
5675 5666 5670 5669 5667 5663 5657 5642 5630 5626 5626 5619 5602 5588 5582 5575 5565 5554 5542 5529 5518 5505 5490 5476 5462 5447 5432 5418 5404 5391 5377 5363 5349 5336 5325 5314 5304 5294 5285 5275 5267 5261 5256 5253
5669 5666 5672 5666 5653 5652 5643 5642 5634 5626 5619 5614 5602 5592 5575 5571 5563 5551 5537 5524 5510 5497 5481 5466 5451 5435 5419 5404 5390 5377 5361 5346 5333 5321 5311 5302 5293 5282 5273 5266 5258 5251 5246 5243
5666 5665 5665 5657 5650 5646 5643 5642 5638 5626 5612 5603 5602 5589 5573 5560 5553 5543 5525 5511 5498 5485 5471 5456 5441 5425 5408 5391 5376 5360 5345 5332 5319 5307 5296 5285 5276 5268 5259 5253 5248 5242 5236 5232
5661 5660 5656 5652 5650 5648 5643 5643 5636 5628 5616 5604 5595 5583 5574 5554 5545 5534 5517 5503 5489 5475 5460 5446 5430 5414 5397 5379 5363 5347 5332 5319 5306 5294 5281 5270 5260 5251 5247 5242 5238 5233 5227 5221
5661 5663 5657 5652 5651 5648 5644 5635 5629 5614 5605 5599 5598 5575 5581 5547 5543 5529 5512 5495 5480 5465 5451 5436 5419 5402 5385 5367 5351 5335 5320 5307 5295 5282 5269 5258 5249 5242 5238 5233 5228 5223 5217 5211
5656 5656 5654 5651 5647 5642 5634 5621 5608 5608 5596 5598 5600 5582 5576 5550 5540 5525 5506 5487 5472 5457 5441 5425 5409 5391 5373 5356 5340 5325 5311 5298 5285 5271 5259 5248 5239 5232 5226 5221 5216 5210 5204 5198
5650 5645 5649 5645 5639 5632 5629 5621 5602 5594 5585 5588 5595 5584 5559 5546 5534 5519 5500 5482 5466 5449 5432 5416 5398 5379 5361 5345 5329 5314 5301 5288 5275 5262 5250 5239 5230 5223 5215 5208 5200 5192 5185 5179
5644 5645 5648 5644 5640 5635 5627 5611 5607 5587 5580 5573 5579 5575 5551 5538 5524 5506 5490 5475 5457 5440 5423 5405 5386 5368 5351 5335 5320 5305 5293 5280 5266 5254 5242 5233 5224 5215 5206 5197 5187 5176 5166 5158
5643 5639 5645 5643 5638 5633 5625 5611 5591 5586 5576 5568 5572 5572 5560 5530 5519 5503 5484 5466 5449 5432 5413 5394 5375 5358 5341 5325 5311 5297 5284 5270 5258 5246 5234 5226 5216 5207 5197 5187 5175 5163 5150 5138
5644 5636 5638 5636 5631 5630 5622 5614 5600 5580 5569 5560 5556 5572 5562 5538 5521 5500 5478 5459 5441 5423 5403 5383 5365 5349 5333 5317 5304 5291 5279 5265 5253 5241 5230 5220 5211 5200 5189 5177 5164 5149 5134 5119
5636 5629 5627 5633 5631 5624 5618 5613 5597 5582 5574 5555 5540 5560 5549 5530 5515 5493 5469 5452 5433 5415 5395 5375 5357 5341 5326 5312 5299 5286 5273 5260 5248 5236 5225 5215 5205 5194 5182 5169 5155 5138 5121 5105
5636 5629 5629 5632 5626 5621 5615 5609 5596 5579 5564 5546 5544 5561 5530 5517 5500 5483 5462 5443 5425 5407 5387 5367 5350 5335 5321 5307 5294 5281 5268 5256 5244 5232 5221 5211 5201 5189 5177 5163 5147 5129 5112 5098
5633 5627 5626 5630 5628 5623 5613 5605 5594 5577 5558 5546 5547 5557 5530 5511 5490 5471 5453 5435 5416 5399 5380 5364 5347 5331 5316 5302 5289 5276 5264 5252 5241 5229 5218 5207 5197 5185 5171 5157 5141 5124 5108 5096
5629 5626 5625 5623 5622 5616 5610 5603 5592 5578 5567 5557 5563 5556 5544 5515 5489 5467 5447 5429 5411 5394 5377 5361 5345 5328 5312 5298 5285 5273 5261 5249 5238 5226 5215 5204 5193 5181 5169 5155 5140 5123 5108 5098
5625 5624 5622 5622 5622 5612 5608 5604 5591 5580 5569 5560 5558 5551 5534 5504 5479 5458 5440 5425 5407 5390 5374 5358 5342 5325 5309 5295 5283 5271 5259 5248 5236 5223 5212 5202 5192 5181 5169 5155 5140 5125 5111 5101
5621 5621 5619 5613 5607 5614 5613 5613 5593 5584 5574 5567 5559 5550 5512 5493 5478 5456 5437 5422 5404 5388 5372 5355 5338 5321 5306 5293 5281 5268 5257 5246 5234 5223 5212 5202 5192 5181 5169 5156 5142 5128 5115 5105
5619 5612 5599 5595 5605 5614 5626 5613 5602 5591 5585 5570 5564 5541 5518 5499 5473 5452 5434 5416 5400 5386 5369 5351 5334 5319 5304 5291 5279 5267 5256 5245 5235 5225 5214 5204 5194 5183 5172 5160 5146 5133 5120 5109
5612 5606 5593 5584 5591 5599 5615 5610 5600 5589 5585 5576 5555 5529 5501 5477 5458 5441 5431 5414 5398 5384 5366 5349 5333 5318 5304 5291 5279 5267 5256 5246 5236 5228 5217 5207 5197 5187 5177 5165 5152 5139 5127 5116
5600 5594 5582 5573 5590 5601 5626 5609 5597 5587 5577 5574 5550 5524 5495 5476 5467 5456 5431 5413 5397 5381 5364 5348 5332 5317 5303 5290 5279 5268 5257 5247 5239 5230 5220 5210 5201 5191 5180 5169 5157 5145 5134 5124
5598 5588 5581 5572 5576 5603 5619 5598 5592 5582 5593 5573 5548 5526 5501 5488 5478 5456 5430 5411 5396 5380 5364 5347 5332 5317 5303 5291 5279 5268 5257 5248 5240 5231 5222 5213 5205 5195 5185 5174 5163 5152 5142 5131
5609 5588 5576 5565 5566 5601 5612 5592 5591 5596 5581 5562 5542 5525 5506 5485 5464 5446 5428 5410 5394 5377 5363 5347 5331 5317 5303 5291 5279 5268 5258 5250 5241 5233 5225 5217 5209 5200 5191 5180 5172 5162 5152 5142
5620 5623 5613 5607 5628 5638 5615 5610 5605 5588 5573 5556 5537 5518 5498 5477 5459 5443 5425 5407 5392 5376 5361 5346 5332 5318 5304 5292 5280 5270 5261 5252 5244 5236 5228 5221 5214 5206 5197 5189 5181 5173 5164 5155
5630 5624 5619 5614 5633 5633 5616 5608 5599 5586 5573 5554 5535 5515 5497 5477 5458 5440 5424 5407 5391 5376 5361 5347 5333 5319 5305 5293 5282 5272 5264 5255 5247 5239 5232 5226 5218 5212 5204 5197 5189 5182 5174 5166
5637 5621 5617 5621 5632 5628 5622 5608 5597 5582 5566 5549 5531 5513 5496 5478 5457 5438 5423 5408 5391 5378 5362 5347 5333 5320 5307 5295 5284 5275 5267 5258 5250 5243 5236 5230 5224 5216 5209 5202 5195 5189 5181 5174
5629 5632 5629 5645 5649 5635 5634 5615 5597 5580 5564 5548 5528 5507 5491 5477 5458 5439 5424 5408 5392 5377 5362 5349 5336 5323 5309 5297 5287 5278 5270 5262 5254 5247 5241 5235 5229 5221 5214 5206 5200 5194 5188 5182